TimePDT,TemperatureF,Dew PointF,Humidity,Sea Level PressureIn,VisibilityMPH,Wind Direction,Wind SpeedMPH,Gust SpeedMPH,PrecipitationIn,Events,Conditions,WindDirDegrees,DateUTC
12:56 AM,44.1,41.0,89,30.22,10.0,ENE,3.5,-,N/A,,Scattered Clouds,60,2013-05-14 07:56:00
1:56 AM,45.0,42.1,90,30.21,10.0,East,4.6,-,N/A,,Scattered Clouds,80,2013-05-14 08:56:00
2:56 AM,43.0,41.0,93,30.22,10.0,ESE,4.6,-,N/A,,Mostly Cloudy,120,2013-05-14 09:56:00
3:56 AM,46.9,43.0,86,30.22,10.0,East,11.5,-,N/A,,Overcast,100,2013-05-14 10:56:00
4:56 AM,46.9,44.1,90,30.24,10.0,Calm,Calm,-,N/A,,Mostly Cloudy,0,2013-05-14 11:56:00
5:56 AM,46.9,44.1,90,30.23,10.0,ESE,5.8,-,0.00,Rain,Light Rain,110,2013-05-14 12:56:00
6:27 AM,48.2,44.6,87,30.23,10.0,Calm,Calm,-,0.00,,Overcast,0,2013-05-14 13:27:00
6:56 AM,48.9,44.1,83,30.25,9.0,East,4.6,-,0.00,,Mostly Cloudy,100,2013-05-14 13:56:00
7:56 AM,51.1,45.0,80,30.25,10.0,SSE,6.9,-,N/A,,Overcast,150,2013-05-14 14:56:00
8:56 AM,53.1,45.0,74,30.24,10.0,SE,8.1,-,N/A,,Overcast,140,2013-05-14 15:56:00
9:56 AM,53.1,44.1,71,30.24,10.0,SE,8.1,-,N/A,,Overcast,140,2013-05-14 16:56:00
10:56 AM,52.0,45.0,77,30.24,10.0,WNW,6.9,-,N/A,,Overcast,290,2013-05-14 17:56:00
11:56 AM,53.1,46.0,77,30.24,10.0,West,6.9,-,N/A,,Overcast,280,2013-05-14 18:56:00
12:56 PM,54.0,46.0,75,30.22,10.0,WNW,6.9,-,N/A,,Overcast,290,2013-05-14 19:56:00
1:56 PM,55.0,46.0,72,30.22,10.0,NW,6.9,-,N/A,,Overcast,320,2013-05-14 20:56:00
2:56 PM,55.9,45.0,67,30.21,10.0,WNW,4.6,-,N/A,,Overcast,300,2013-05-14 21:56:00
3:56 PM,57.0,43.0,59,30.19,10.0,West,5.8,-,N/A,,Mostly Cloudy,260,2013-05-14 22:56:00
4:56 PM,55.9,44.1,64,30.18,10.0,West,6.9,-,N/A,,Mostly Cloudy,280,2013-05-14 23:56:00
5:56 PM,55.0,45.0,69,30.18,10.0,WNW,4.6,-,N/A,,Mostly Cloudy,300,2013-05-15 00:56:00
6:56 PM,54.0,43.0,66,30.17,10.0,West,4.6,-,N/A,,Mostly Cloudy,280,2013-05-15 01:56:00
7:56 PM,52.0,43.0,71,30.17,10.0,WSW,6.9,-,N/A,,Overcast,250,2013-05-15 02:56:00
8:56 PM,50.0,45.0,83,30.16,10.0,Calm,Calm,-,N/A,,Overcast,0,2013-05-15 03:56:00
9:56 PM,50.0,45.0,83,30.17,10.0,Calm,Calm,-,N/A,,Overcast,0,2013-05-15 04:56:00
10:56 PM,50.0,45.0,83,30.16,10.0,SW,4.6,-,N/A,,Overcast,220,2013-05-15 05:56:00
11:56 PM,48.9,46.0,90,30.15,10.0,SSW,3.5,-,N/A,,Mostly Cloudy,210,2013-05-15 06:56:00